Terminal Aerodrome Forecast
Issued by NWS Wilmington, OH

Current Version | Previous Version | Graphics & Text | Print | Product List | Glossary On
Versions: 1 2 3 4 5 6 7 8 9 10 11 12 13 14 15 16 17 18 19 20 21
517
FTUS41 KILN 201639 AAA
TAFDAY
TAF AMD
KDAY 201639Z 2017/2112 22018G28KT P6SM SCT050 BKN250
     FM202300 23015G21KT P6SM -SHRA VCTS BKN040CB
      TEMPO 2101/2103 3SM -TSRA BKN030CB
     FM210300 25012KT 5SM -SHRA OVC035
     FM210500 29011KT P6SM BKN015=

USA.gov is the U.S. government's official web portal to all federal, state and local government web resources and services.